Location: Pallagorio
(39.3000°N, 16.9000°E)
Time: 21:41:47
(UTC+00:00)

NOSS 3-1 (C) - Pass Details

Date: 24 January 2021
Orbit: 723 x 1485 km, 63.3° (Epoch: 03 March)

Event Time Altitude Azimuth Distance (km) Brightness Sun altitude
Rises 18:15:29 0° 324° (NW) 4,034 7.1 -25.4°
Reaches altitude 10° 18:18:03 10° 323° (NW) 3,168 6.5 -25.9°
Maximum altitude 18:25:51 74° 240° (WSW) 1,411 4.3 -27.4°
Drops below altitude 10° 18:34:45 10° 158° (SSE) 3,582 6.2 -29.1°
Enters shadow 18:35:34 - 157° (SSE) 3,847 6.4 -29.3°
